Location: Castle Hill Houses
(40.8186°N, 73.8497°W)
Time: 11:23:22
(UTC+00:00)

Cosmos 2366 rocket - Pass Details

Date: 26 January 2020
Orbit: 956 x 996 km, 82.9° (Epoch: 27 February)

Event Time Altitude Azimuth Distance (km) Brightness Sun altitude
Rises 11:01:09 0° 346° (NNW) 3,723 6.8 -13.4°
Reaches altitude 10° 11:03:48 10° 340° (NNW) 2,771 6.1 -12.9°
Maximum altitude 11:09:45 44° 271° (W) 1,352 4.3 -11.8°
Drops below altitude 10° 11:15:41 10° 201° (SSW) 2,749 6.3 -10.7°
Sets 11:18:18 0° 195° (SSW) 3,690 7.0 -10.2°
